Theta_e
300 301 301 301 301 301 301 301 300 300 300 301 302 305 305 304 304 305 303 303 303 303 301 300 301 303 302 303 304 302 301 303 307 310 310 310 311 314 313 311 315 313 314 313 313 321 323 329 332 336 330 331 333 335
300 301 301 301 301 301 301 300 300 300 301 301 303 305 305 304 304 305 304 303 303 303 303 303 302 302 302 302 303 303 304 302 302 306 306 305 308 311 311 315 313 318 318 320 315 317 320 329 330 329 328 332 332 333
300 300 300 301 301 301 301 301 301 301 302 302 305 306 306 306 305 305 305 303 302 303 302 300 300 302 302 302 302 304 303 303 305 306 306 304 307 309 311 311 313 313 314 321 321 322 329 331 329 328 329 331 331 332
300 300 301 301 301 301 302 302 302 302 302 304 306 306 307 307 306 306 306 305 303 302 303 301 303 302 303 302 302 302 302 301 301 306 308 310 311 308 311 310 313 311 311 314 319 317 326 331 329 329 330 331 331 333
302 302 302 302 302 302 302 302 302 302 303 305 306 307 307 307 307 306 306 306 304 302 301 302 301 303 303 302 302 301 301 301 302 306 309 310 309 310 308 309 310 310 311 313 314 317 319 328 327 328 330 330 331 333
302 302 301 301 302 302 302 302 302 303 305 307 306 307 307 308 306 306 303 303 305 303 303 305 301 302 303 302 301 301 301 302 303 305 307 308 309 309 310 311 311 314 313 312 314 322 324 326 327 327 329 329 330 332
301 301 301 301 302 302 303 303 303 305 307 306 307 308 308 308 306 304 304 304 304 303 304 305 304 302 301 305 305 305 303 303 304 306 308 308 310 309 307 311 310 311 311 310 314 321 327 326 327 326 327 328 328 332
301 302 302 302 304 304 304 304 305 307 307 307 308 308 309 308 307 306 306 304 304 303 303 305 304 301 305 308 309 304 304 304 307 309 311 311 311 311 311 311 311 312 313 317 323 324 324 326 325 327 326 327 328 329
302 302 304 306 305 305 305 305 307 307 308 307 308 307 307 307 307 306 306 304 304 303 304 304 306 305 303 309 309 311 312 313 311 312 314 313 311 310 311 311 313 316 319 324 325 326 325 326 327 327 327 326 327 328
305 307 306 306 305 305 306 307 308 308 309 308 308 308 306 307 306 304 304 303 301 301 301 301 303 306 303 312 313 313 314 315 316 315 314 311 310 311 314 318 319 321 320 324 325 325 325 324 323 323 323 324 326 326
306 305 305 306 306 306 307 308 308 308 309 309 306 306 307 307 307 308 308 304 300 303 299 300 302 306 307 311 315 312 315 312 313 314 314 311 312 314 317 319 321 323 324 324 323 323 324 323 324 325 326 325 326 327
305 305 306 307 306 308 310 310 308 308 308 307 306 307 307 310 310 311 313 308 306 310 308 307 308 305 307 309 313 313 309 309 315 311 311 314 317 319 321 321 322 323 324 325 326 327 327 326 326 326 326 326 326 325
306 307 307 307 309 311 311 312 313 312 309 309 308 310 313 315 313 315 313 317 321 319 317 311 315 313 314 315 315 316 317 317 315 313 312 321 320 318 318 319 320 321 322 322 323 324 323 323 323 324 325 325 325 325
308 308 307 310 311 312 313 313 315 314 314 309 312 316 318 318 317 315 316 317 317 318 317 317 320 320 318 320 320 320 318 315 318 316 321 321 318 314 312 313 314 313 314 315 316 316 317 318 320 319 320 323 324 324
308 307 309 311 312 312 314 314 314 315 313 312 314 316 317 314 313 312 313 313 312 313 314 316 315 315 318 319 318 317 318 316 319 320 320 318 317 313 311 309 309 309 309 309 310 312 314 314 313 312 312 314 320 320
308 308 311 313 312 313 314 314 314 315 314 313 312 312 311 311 312 311 310 309 308 311 313 314 316 318 318 316 317 318 315 317 319 317 316 315 311 310 308 307 306 306 307 307 307 307 307 307 308 308 308 311 312 312
309 311 312 314 312 313 314 314 314 313 313 313 312 308 308 308 309 310 309 308 306 311 314 316 317 318 316 315 314 312 315 314 314 310 310 310 308 306 304 304 304 304 304 305 305 305 306 307 307 307 308 308 307 306
312 313 314 315 313 313 314 314 313 313 314 311 310 309 306 306 308 308 308 308 305 305 311 312 309 311 312 311 309 308 309 309 310 306 304 303 303 303 303 303 303 303 303 303 304 304 303 304 304 304 304 305 304 304
312 314 315 315 313 313 311 311 312 314 312 309 308 306 306 306 306 307 307 307 306 303 304 305 307 307 307 306 307 304 303 303 306 305 300 299 300 300 301 301 301 301 302 301 302 303 303 303 302 302 302 303 302 302
314 314 315 316 314 312 310 309 311 311 313 311 308 309 307 307 304 306 307 306 304 304 305 304 306 306 306 302 299 299 298 300 301 301 299 297 297 298 297 298 298 299 299 299 298 299 300 301 301 302 301 300 300 299
314 315 316 317 315 313 308 308 309 309 309 310 308 309 310 307 307 306 305 303 305 306 305 305 302 298 296 296 296 296 297 296 296 296 297 296 296 296 297 297 297 296 296 296 296 296 296 295 297 300 300 299 297 297
313 314 316 317 315 311 310 310 309 308 312 312 313 313 311 309 307 307 303 304 305 304 303 301 299 296 294 295 295 295 296 296 296 295 295 294 294 294 295 295 295 295 294 294 294 294 295 296 298 299 298 297 296 295
314 314 316 316 315 308 312 313 314 312 314 312 311 314 314 315 311 305 308 303 303 302 302 301 298 296 295 295 296 295 295 295 293 293 294 293 293 293 293 294 294 294 293 293 295 295 295 296 296 296 295 294 294 293
315 313 314 314 315 313 312 313 312 313 313 316 316 315 313 312 311 308 308 305 303 302 300 300 296 294 294 294 292 292 293 293 293 293 293 293 292 292 292 293 293 294 293 294 294 294 295 295 295 294 294 293 293 292
309 311 311 308 313 315 317 315 313 314 316 315 315 313 312 309 310 308 308 305 303 304 302 298 296 294 293 292 292 292 293 293 292 291 291 292 292 293 293 293 292 292 293 294 294 294 293 293 293 294 294 293 292 292
314 318 316 320 316 317 316 315 314 315 315 317 316 312 309 309 309 308 304 303 303 304 304 300 295 293 293 292 291 292 293 293 293 292 292 292 291 291 290 290 290 292 293 293 293 293 293 292 292 292 292 292 292 291
313 315 312 310 314 314 312 310 310 312 317 318 314 314 311 312 311 306 303 303 303 307 308 305 301 296 294 293 293 293 293 292 292 292 292 292 291 291 291 291 290 291 292 292 293 293 292 292 291 291 291 291 291 291
313 312 317 314 317 312 314 312 313 313 311 309 309 312 312 311 308 304 303 307 307 306 300 299 298 297 295 294 293 293 293 292 292 291 291 292 291 291 291 291 291 292 292 292 292 292 292 291 291 291 291 291 291 291
314 312 313 316 315 312 312 313 312 308 306 308 311 310 309 305 305 305 307 305 305 299 297 296 295 295 294 293 293 293 293 293 292 290 290 289 289 291 291 291 291 292 292 292 292 291 291 291 291 291 292 292 293 293
318 313 315 318 317 316 313 309 309 306 305 307 306 305 306 305 307 308 308 303 300 298 297 296 295 294 293 293 292 292 292 292 292 291 289 290 290 291 291 291 291 292 291 291 292 291 292 292 292 292 292 293 293 293
313 314 317 317 316 313 311 309 310 310 307 306 305 307 308 306 308 304 303 302 300 299 297 295 294 294 294 293 292 291 291 292 292 292 292 291 291 291 291 291 291 291 292 292 292 292 291 292 292 292 292 292 292 292
315 317 317 318 316 311 309 311 310 311 310 309 309 308 309 308 310 305 300 299 299 298 297 297 296 295 295 295 295 294 293 293 293 293 292 292 291 291 291 291 291 291 291 292 292 292 292 292 292 291 291 291 291 291
317 315 315 316 315 314 312 313 313 314 312 310 310 310 311 312 312 304 300 299 299 300 299 298 297 296 295 295 295 295 294 293 293 293 292 292 292 292 291 291 291 291 292 292 292 292 292 291 291 291 291 291 291 292
Wind_Speed
24 25 25 27 28 28 29 30 31 32 31 30 29 25 24 26 23 15 9 11 10 3 9 10 9 12 9 7 5 2 5 1 1 2 2 2 3 1 3 5 3 6 6 5 6 6 15 1 5 4 3 6 13 17
27 27 27 28 30 31 32 33 34 34 33 32 31 28 26 24 24 19 9 13 14 5 6 21 30 29 28 24 6 5 6 2 3 1 2 2 2 3 4 4 5 4 7 4 9 6 5 5 5 5 5 7 10 16
28 29 30 30 31 33 35 37 38 37 36 34 31 29 28 27 24 20 16 15 7 3 8 6 8 19 21 32 29 7 5 5 4 2 2 3 6 2 3 4 3 5 3 7 6 8 7 3 5 4 8 6 15 18
29 31 33 35 36 36 38 40 41 40 39 35 32 31 28 24 22 19 17 19 12 2 3 6 6 11 14 12 26 34 17 0 2 3 3 3 3 4 4 5 5 7 6 5 8 20 12 5 3 6 6 12 16 16
32 34 35 37 38 38 40 41 42 42 39 36 33 28 22 19 16 14 16 15 19 6 3 6 22 10 7 20 21 25 21 11 4 2 3 3 3 4 3 4 12 7 8 5 9 9 7 3 4 8 5 9 13 13
34 36 36 37 39 38 40 41 42 42 37 40 34 29 19 13 9 3 2 7 17 18 1 4 5 4 5 8 15 13 11 6 5 4 4 4 5 3 4 5 6 6 6 12 19 10 8 5 4 4 4 8 11 11
35 37 38 38 39 39 41 42 42 40 38 42 36 24 14 10 12 3 3 1 13 16 2 4 4 4 3 4 3 3 12 4 4 3 4 4 4 6 3 11 27 19 20 20 18 17 8 9 3 4 8 8 10 7
36 37 37 37 37 37 39 40 39 38 42 40 26 12 1 9 8 7 13 7 19 3 1 3 4 5 0 2 1 3 4 4 5 3 3 4 3 5 6 12 13 18 19 16 15 14 4 7 7 9 8 11 15 12
36 36 35 35 35 36 36 37 35 41 43 21 6 7 6 3 3 1 3 14 7 3 1 2 3 3 4 2 2 2 4 3 3 4 3 3 2 5 12 17 20 21 10 3 5 13 11 9 11 13 13 13 14 12
33 33 32 32 33 34 34 31 40 40 25 7 3 1 3 3 11 13 3 2 2 1 0 2 2 4 2 2 2 2 2 1 2 1 3 1 3 13 16 15 19 3 10 9 14 11 11 11 11 13 10 11 6 4
31 30 30 30 32 31 27 35 39 34 6 4 4 2 5 10 3 2 2 1 1 2 2 3 4 3 2 2 1 1 3 3 2 3 4 3 3 12 15 12 18 13 11 10 11 9 7 10 10 9 6 7 7 8
28 28 29 29 25 27 33 36 32 19 9 9 8 5 1 2 1 2 2 3 3 3 3 3 3 4 3 3 2 2 2 2 3 6 5 5 7 20 13 11 16 13 13 12 12 11 9 10 7 10 10 11 10 12
27 28 27 20 25 33 33 28 21 13 4 2 1 1 3 3 7 6 6 4 5 4 1 3 2 2 2 1 2 1 4 4 3 3 3 7 15 16 18 19 25 23 22 18 15 16 15 16 20 15 13 13 16 17
27 26 15 23 33 32 23 22 24 10 4 4 5 8 5 5 7 3 8 6 5 4 8 3 1 2 2 2 3 5 4 4 5 5 8 10 16 16 16 16 17 18 18 19 22 19 19 18 16 24 23 20 22 17
25 16 17 29 31 23 19 22 23 15 6 4 5 7 5 5 5 6 4 4 7 8 2 2 2 3 4 4 5 5 6 5 6 6 9 10 10 12 14 14 15 16 15 15 14 16 17 17 17 18 23 24 24 26
19 8 21 28 22 19 13 14 16 9 5 4 7 5 7 4 13 14 13 10 9 9 2 3 5 5 6 4 7 8 4 7 7 7 7 6 10 11 9 11 12 12 13 14 17 19 20 17 13 17 27 25 24 24
9 9 22 25 17 16 20 13 8 5 4 5 4 2 3 3 4 6 8 10 11 8 4 3 7 7 3 6 7 7 6 7 7 7 7 10 9 9 10 14 12 16 15 18 20 22 19 23 29 27 15 20 22 22
6 18 19 21 16 8 9 10 5 5 5 3 3 5 4 2 7 7 8 10 7 4 4 4 4 7 5 6 6 5 3 6 4 6 7 9 11 14 17 13 18 19 18 20 21 22 25 23 18 12 17 14 21 21
17 16 19 17 12 5 4 5 5 4 2 1 3 3 2 3 4 8 9 14 13 8 3 4 6 4 3 2 3 7 6 4 3 4 7 15 18 17 17 20 21 22 22 21 20 16 18 21 16 15 15 21 19 20
7 8 16 12 10 3 4 3 3 4 3 3 0 3 2 1 4 5 8 7 4 3 7 5 3 3 3 3 2 3 3 4 2 4 7 8 17 17 19 16 15 16 17 19 22 24 20 21 22 21 20 22 21 18
4 8 7 10 5 7 3 1 3 2 3 2 1 1 1 2 3 5 5 5 5 3 3 2 2 3 9 5 7 5 10 10 5 3 2 4 13 15 17 19 18 19 16 15 13 15 18 14 16 19 20 21 21 22
5 9 5 5 4 4 3 2 3 1 2 1 1 1 2 2 2 2 3 5 3 2 2 0 2 2 3 4 6 12 10 15 16 16 17 12 5 6 9 14 13 11 14 15 16 13 15 19 19 21 22 21 24 26
6 5 3 4 2 4 2 1 2 2 2 1 2 2 2 1 1 1 2 0 2 2 2 2 0 3 4 7 12 15 13 11 11 12 13 13 16 17 17 17 14 13 11 16 15 16 16 18 20 20 21 23 22 22
4 3 3 2 2 2 2 3 2 2 2 2 2 1 2 2 2 3 2 2 3 4 1 2 4 2 4 6 5 7 11 6 8 13 12 10 10 12 14 15 15 13 11 12 16 18 19 20 22 22 21 21 20 19
3 5 4 4 1 3 3 4 3 2 1 1 2 1 2 2 2 2 0 3 2 2 1 5 4 3 2 2 2 3 5 7 7 5 12 9 8 11 12 13 15 14 10 11 12 14 14 14 15 15 14 14 13 12
3 2 2 1 1 2 1 2 2 1 1 1 1 1 2 2 2 1 2 3 2 3 4 5 5 3 1 2 1 0 2 3 6 10 10 11 10 9 7 5 7 14 12 7 7 9 9 10 11 12 11 10 10 10
2 1 2 1 1 1 1 1 1 2 1 0 1 1 1 2 2 3 3 3 3 6 9 9 13 12 9 7 3 3 2 2 4 7 9 10 11 12 12 10 9 8 6 6 6 6 6 7 8 9 11 12 10 8
2 3 2 2 1 1 1 1 0 2 2 2 2 1 3 4 4 3 5 3 7 7 4 2 6 7 11 8 7 5 4 3 3 1 1 8 11 12 13 13 11 7 6 5 6 6 7 7 6 7 9 9 9 10
2 2 2 2 1 1 3 4 4 3 3 3 4 3 3 3 2 3 2 3 5 10 8 8 10 10 10 8 6 4 5 7 9 4 3 2 6 10 13 14 12 6 3 6 5 5 6 7 7 7 8 8 9 10
3 4 3 2 3 4 4 5 3 3 3 3 3 1 1 2 2 3 2 4 13 13 9 8 13 13 9 8 5 3 2 3 5 4 1 1 3 7 10 12 13 12 8 6 5 6 6 7 7 8 8 10 11 11
4 3 1 2 4 3 3 4 2 3 2 1 1 2 2 2 1 1 2 5 7 8 11 11 11 10 8 8 9 7 6 5 1 1 1 2 4 6 7 10 10 8 8 8 7 5 4 6 7 7 8 10 11 11
4 6 5 3 3 2 1 2 3 2 2 2 2 1 1 2 2 2 3 5 6 8 6 8 8 7 6 5 8 10 8 3 4 1 2 5 7 8 6 6 9 9 9 9 8 8 8 8 8 9 9 10 12 13
2 3 2 2 1 2 2 3 3 2 0 2 3 4 4 4 3 2 1 6 4 5 7 7 5 4 2 4 7 7 1 8 5 1 3 8 11 10 2 4 9 10 9 9 9 9 9 10 11 12 13 13 13 13
Wind_Direction
328 328 326 323 326 328 329 328 325 323 322 320 312 302 299 301 297 277 261 254 228 240 268 238 235 251 250 237 237 307 344 289 262 239 232 268 261 323 288 273 206 175 174 189 222 238 235 45 297 171 306 296 302 303
325 325 325 324 325 327 330 327 325 325 325 323 315 303 293 289 291 280 230 249 254 238 263 277 268 255 240 231 216 197 238 313 232 206 233 262 276 254 206 276 292 234 193 203 198 219 248 146 214 257 256 282 305 305
323 322 322 322 325 326 328 326 326 327 328 325 315 305 297 289 283 275 242 231 230 260 281 257 242 271 251 239 231 238 233 210 229 176 270 227 236 227 243 241 282 272 339 252 318 239 222 204 278 228 250 17 321 304
321 320 320 321 324 327 327 324 326 328 329 327 316 314 310 300 285 269 261 230 200 244 273 276 282 257 277 242 217 215 225 172 202 178 249 245 242 198 238 246 253 241 329 301 286 289 287 202 258 271 327 23 321 323
318 317 319 320 322 326 324 325 326 330 333 329 323 321 309 298 287 272 260 257 216 187 248 290 303 282 297 234 210 205 213 224 234 263 244 243 247 242 229 252 258 208 226 213 248 249 259 229 280 296 29 10 326 325
317 316 318 321 322 325 323 326 328 334 334 333 327 321 308 289 280 246 309 234 227 205 284 285 293 281 297 200 193 194 197 207 206 209 225 225 217 202 254 251 225 194 236 233 259 282 259 205 199 321 43 1 343 337
316 316 319 323 323 326 326 329 332 331 335 335 329 318 289 241 215 169 207 234 174 178 246 290 291 274 281 211 175 170 182 196 200 221 232 252 240 199 245 259 270 267 261 267 252 253 220 246 178 43 28 18 4 325
316 318 321 322 322 325 326 330 332 333 336 338 333 342 46 172 210 248 259 211 166 134 217 279 274 323 288 287 256 181 151 208 206 227 219 217 217 216 251 268 270 274 270 259 244 220 167 192 127 79 55 39 43 7
318 319 321 323 326 327 331 331 335 337 336 340 8 85 97 88 147 233 106 173 174 86 262 246 288 290 353 263 240 267 165 207 216 227 212 221 215 235 242 255 266 267 249 220 155 143 157 136 105 97 71 49 53 5
322 324 326 328 328 329 332 333 339 340 347 10 86 66 48 24 138 123 85 62 33 11 340 258 294 268 346 299 316 294 253 245 262 275 293 258 272 267 285 300 304 92 181 180 117 107 117 115 108 95 112 155 177 151
329 330 333 332 332 332 333 336 344 344 12 27 32 54 324 162 181 201 121 103 195 252 218 243 232 271 220 260 290 230 333 1 309 332 324 300 282 308 326 322 359 35 82 83 96 109 114 119 124 130 114 80 76 83
333 335 338 338 338 336 337 344 348 342 340 320 293 300 280 222 248 330 325 147 204 264 194 229 244 215 268 232 8 25 347 339 325 339 345 352 358 353 16 29 18 26 64 64 77 84 87 83 88 89 77 60 46 48
337 340 344 347 342 344 347 352 351 347 15 94 104 55 31 15 22 12 338 325 327 324 296 216 264 242 229 233 246 305 353 5 286 21 352 9 17 10 16 25 40 31 33 37 54 72 60 60 55 58 62 58 64 55
340 343 350 350 349 353 358 9 11 13 16 51 23 7 27 6 12 321 313 317 304 291 311 277 298 327 330 345 360 357 359 19 19 20 24 14 16 17 16 28 36 28 27 29 43 45 46 49 48 45 48 64 72 65
343 348 355 354 353 6 24 15 9 9 34 50 33 16 4 326 307 313 267 292 339 327 312 347 20 43 353 47 9 6 11 20 23 25 20 10 15 18 25 35 38 33 32 34 38 53 58 55 50 46 45 54 67 67
352 354 356 352 4 16 37 16 8 14 40 56 42 353 320 345 359 4 357 350 350 346 2 26 26 20 34 26 358 15 15 24 9 6 355 2 23 18 23 39 41 51 48 39 41 42 43 46 55 56 52 50 60 64
10 360 349 353 5 30 35 7 10 43 55 36 347 322 286 282 299 333 346 352 341 18 19 42 44 16 353 14 14 4 7 351 352 359 358 10 13 11 31 37 28 32 41 42 42 39 42 45 47 44 43 35 51 55
348 348 354 353 353 6 27 26 65 61 53 8 28 307 323 277 354 7 352 1 14 15 13 54 67 26 37 4 335 323 315 318 343 12 12 7 12 21 34 36 33 34 37 38 43 44 43 44 43 36 40 42 57 43
332 341 353 2 2 14 31 29 60 82 67 232 301 319 344 303 345 358 15 10 13 19 56 41 55 25 352 307 294 326 332 351 330 344 17 18 24 29 34 35 36 33 37 35 37 42 49 48 46 46 52 56 56 43
329 332 348 2 13 34 48 12 62 105 165 211 96 347 48 4 308 355 19 8 13 21 34 44 38 336 323 304 267 281 312 311 332 43 33 16 13 27 32 33 27 26 39 40 41 39 38 40 33 40 51 57 57 45
325 343 353 2 19 46 101 73 42 144 139 139 285 78 306 6 21 10 8 348 23 44 55 30 322 306 331 329 6 2 21 23 30 47 353 7 3 25 29 31 40 45 42 32 29 26 35 33 37 57 59 58 61 64
333 345 340 356 28 13 76 41 137 152 85 169 64 85 42 23 359 352 309 35 31 326 42 344 295 292 335 7 347 33 41 59 56 48 46 44 33 31 27 23 40 44 45 35 35 32 36 48 64 69 69 65 65 66
343 351 355 11 27 35 268 62 75 22 73 342 12 42 0 29 238 235 75 96 257 274 233 193 233 44 40 46 51 41 35 47 49 40 42 47 54 52 51 50 54 53 43 41 55 57 52 59 69 71 71 70 67 64
352 16 42 37 51 291 356 29 48 69 64 54 78 44 348 305 356 57 80 284 262 326 348 179 128 31 14 31 32 4 8 26 62 50 35 41 44 36 43 42 41 41 42 60 75 74 75 76 77 80 80 77 72 68
37 341 69 341 16 31 26 3 356 49 69 5 75 352 323 30 68 56 257 275 293 286 195 168 141 142 140 273 308 29 47 50 50 45 31 38 48 48 38 43 46 39 44 72 81 78 75 77 76 74 72 77 80 77
74 331 80 339 340 49 329 347 331 294 164 122 43 327 47 78 75 257 240 239 242 239 223 207 172 160 211 219 196 34 27 63 74 59 34 47 58 62 46 33 12 23 40 60 78 77 77 74 73 73 70 63 63 72
59 322 322 320 125 110 18 348 59 79 62 49 197 95 79 47 284 253 273 236 235 268 268 288 195 183 173 170 133 79 80 63 83 94 73 64 60 53 48 40 14 350 27 62 74 78 81 66 56 47 46 47 46 47
205 168 174 277 48 152 174 155 160 212 226 202 106 170 189 200 234 225 210 255 286 275 253 163 184 172 153 139 123 102 71 65 68 171 116 55 47 40 31 24 19 22 57 66 52 57 56 51 48 53 43 43 46 45
230 198 125 266 213 252 217 190 210 224 185 153 161 204 231 222 226 210 213 306 203 190 165 139 141 153 147 143 137 112 75 50 50 45 34 357 359 15 21 20 20 21 78 55 65 75 67 69 69 64 58 56 39 26
233 160 152 204 201 235 237 173 196 172 180 179 147 79 320 265 232 222 251 187 185 200 206 189 174 176 171 170 186 187 149 63 45 39 66 315 319 8 21 22 31 43 57 65 72 82 83 69 60 48 44 34 27 23
130 141 118 217 243 237 214 155 106 100 106 118 28 163 231 308 336 334 233 194 193 180 170 172 189 204 202 221 228 229 243 220 197 348 9 13 13 12 17 26 26 30 36 41 45 48 51 60 51 39 28 16 9 7
165 190 182 218 267 349 112 116 168 177 204 161 218 115 29 46 293 288 184 181 164 166 182 181 186 204 213 265 292 284 248 223 183 76 339 337 343 346 351 26 33 33 29 31 37 47 52 42 29 18 6 359 357 355
161 154 168 139 115 198 218 141 191 276 157 211 232 197 189 177 234 246 188 205 235 230 199 176 163 142 89 355 332 326 283 175 163 129 338 336 335 336 323 51 33 24 28 30 31 30 21 15 10 4 0 358 356 1